Voltar ao catálogo

STARLINK-3299

AtivoComunicaçõesVLEO
NORAD 50831·PAYLOAD·🇺🇸 United States

Lançado Jan 6, 2022 de Cape Canaveral Space Force Station

Loading…

Próximas Passagens (próximas 24 horas)

TLE

AtualizadoSource: CelesTrak SupGP

Época: Sep 15, 2026, 01:38 UTC

1 50831C 22001AE  26258.06854167  .00041845  00000+0  12657-2 0  2584
2 50831  53.1586  28.0778 0001180 349.4260  56.3595 15.33629257    14

Acompanhe STARLINK-3299 em tempo real com AllMySat

Download on the App Store